DECAYED

FENGYUN 1C DEB, 31358 (Decayed)

Orbit data source: Space-Track

FENGYUN 1C DEB, 31358 was space debris in SSO originally from a launch on Mon, 10 May 1999 UTC launched from the Taiyaun Space Center, China (TSC). Fengyun 1C debris stems from the Chinese weather satellite Fengyun-1C, which was intentionally destroyed by a Chinese anti-satellite missile in 2007. This event dramatically increased the amount of space debris, with thousands of trackable fragments posing hazards to satellites and human spaceflight. The Fengyun 1C debris cloud has become a focal point in discussions about space sustainability and the need for international regulations to prevent the creation of new debris.

Not visible in the next 10 days
Identifier
31358, 1999-025BRN
Orbit
Decayed
Country
Flag of CNCN / PRC
Related business
Manufacturer
Unknown
Mission
Decayed spacecraft
Bus & Motor
Unknown
Mass
Unknown
Launch date (UTC)
1999-05-10 (27 years ago)
Launch vehicle
Unknown
Launch site
Taiyaun Space Center, China (TSC)
Object type
Payload
Rocket body
Debris
Shape & HBR
Unknown shape, 0.1 m
Radar Cross Section
Small (<0.1 m²)

Expand to show TLE details & history
Last TLE update: 3 months ago

TLE from 3 months ago
0 FENGYUN 1C DEB
1 31358U 99025BRN 26038.30943718  .05691631  68189-1  19780-1 0  9999
2 31358  98.8628 348.2477 0017366 164.9625 195.2166 15.95737648984392
Epoch: 2026-02-07T07:25Z
TLE epoch observation values (Epoch: 2026-02-07T07:25:35.372Z)
Latitude
-0.00003°
Longitude
99.41551°
Altitude
300.577 km
Speed
7.721 km/s
True Right ascension
23h 12m 59s
True Declination
0° 00' 00"
Sunlit
Object was in daylight at epoch
Visualization orbit readout
Latitude
Unknown
Longitude
Unknown
Altitude
Unknown
Speed
Unknown
Apparent Right ascension
Unknown
Apparent Declination
Unknown
Sunlit
N/A
Visualization observer readout
Local Sidereal Time
17:11:03
Azimuth
Unknown
Elevation
Unknown
Doppler factor
Unknown
Orbital elements
Apogee altitude
294.764 km
Perigee altitude
271.628 km
Semi-major axis
6,661.333 km
Eccentricity
0.00174
Inclination
98.8628°
RAAN
348.2477°
Arg. of periapsis
164.9625°
True anomaly
195.16448°
Mean anomaly
195.2166°
Eccentric anomaly
195.19053°
Mean motion
3.9921 °/min
Orbital period
90.18 mins
BSTAR
0.01978
Loading maneuver chart data...
Computing Atmospheric mass density...

Documentation

Showing up to 5 results
|